User: anonymous   Login
Location: Mt. Cuba Astronomical Observatory
(39.8100°N, 75.6300°W)
Time: 09:14:57
(UTC-04:00)
Language:

Cosmos 2058 - Orbit

View from above orbital plane
View from above orbital plane
View from above satellite
View from above satellite

Ground track
Ground track

The orbit data is extracted from the following two-line orbital elements,

1 20465U 90010A   17264.83747104 +.00000345 +00000-0 +27172-4 0  9996
2 20465 082.4911 154.9402 0014983 334.9551 025.0943 14.97573925478693
Epoch (UTC): 21 September 2017 20:05:57
Eccentricity: 0.0014983
inclination: 82.4911°
perigee height: 564 km
apogee height: 585 km
right ascension of ascending node: 154.9402°
argument of perigee: 334.9551°
revolutions per day: 14.97573925
mean anomaly at epoch: 25.0943°
orbit number at epoch: 47869

The dashed part of the orbit path shows where the satellite is in the earth's shadow,  

DLR